| time (UTC) | temp F | wind direction | speed MPH | gust MPH | rain 1hr in | rain 24hr in | rain mn in | humidity % | barometer mb |
| 20260510230516 | 44 | 0.0 | 1.0 | 0.00 | 0.04 | 0.00 | 78 | 1016.8 | |
| 20260510225516 | 44 | 0.0 | 1.0 | 0.00 | 0.04 | 0.04 | 78 | 1016.9 | |
| 20260510224536 | 45 | 0.0 | 2.0 | 0.00 | 0.04 | 0.04 | 77 | 1017.0 | |
| 20260510223516 | 45 | 0.0 | 1.0 | 0.00 | 0.04 | 0.04 | 77 | 1017.1 | |
| 20260510222536 | 46 | 0.0 | 4.0 | 0.00 | 0.04 | 0.04 | 77 | 1017.2 | |
| 20260510221516 | 46 | 315 | 1.0 | 3.0 | 0.00 | 0.04 | 0.04 | 77 | 1017.2 |
| 20260510220516 | 46 | 315 | 1.0 | 2.0 | 0.00 | 0.04 | 0.04 | 77 | 1017.2 |
| 20260510215516 | 46 | 293 | 1.0 | 3.0 | 0.00 | 0.04 | 0.04 | 77 | 1017.3 |
| 20260510214516 | 46 | 0.0 | 2.0 | 0.00 | 0.04 | 0.04 | 77 | 1017.2 | |
| 20260510213516 | 47 | 23 | 1.0 | 5.0 | 0.00 | 0.04 | 0.04 | 76 | 1017.2 |
| 20260510212516 | 47 | 0.0 | 2.0 | 0.00 | 0.04 | 0.04 | 75 | 1017.2 | |
| 20260510211516 | 48 | 0.0 | 1.0 | 0.00 | 0.04 | 0.04 | 75 | 1017.2 | |
| 20260510210516 | 48 | 0.0 | 2.0 | 0.00 | 0.04 | 0.04 | 74 | 1017.2 | |
| 20260510205516 | 49 | 23 | 1.0 | 6.0 | 0.00 | 0.04 | 0.04 | 74 | 1017.2 |
| 20260510204516 | 49 | 0 | 1.0 | 4.0 | 0.00 | 0.04 | 0.04 | 74 | 1017.2 |
| 20260510203516 | 49 | 0.0 | 2.0 | 0.00 | 0.04 | 0.04 | 74 | 1017.3 | |
| 20260510202516 | 49 | 0 | 1.0 | 2.0 | 0.00 | 0.04 | 0.04 | 74 | 1017.1 |
| 20260510201516 | 50 | 0 | 1.0 | 2.0 | 0.00 | 0.04 | 0.04 | 74 | 1017.1 |
| 20260510200516 | 50 | 0 | 1.0 | 3.0 | 0.00 | 0.04 | 0.04 | 74 | 1017.1 |
| 20260510195516 | 51 | 45 | 1.0 | 3.0 | 0.00 | 0.04 | 0.04 | 73 | 1016.9 |
| 20260510194516 | 51 | 0 | 1.0 | 4.0 | 0.00 | 0.04 | 0.04 | 73 | 1016.8 |
| 20260510193516 | 51 | 45 | 1.0 | 3.0 | 0.00 | 0.04 | 0.04 | 73 | 1016.8 |
| 20260510192516 | 52 | 338 | 1.0 | 4.0 | 0.00 | 0.04 | 0.04 | 73 | 1016.8 |
| 20260510191536 | 52 | 45 | 1.0 | 4.0 | 0.00 | 0.04 | 0.04 | 73 | 1016.7 |
| 20260510190516 | 52 | 315 | 1.0 | 5.0 | 0.00 | 0.04 | 0.04 | 74 | 1016.7 |
| 20260510185516 | 52 | 0 | 1.0 | 5.0 | 0.00 | 0.04 | 0.04 | 75 | 1016.7 |
| 20260510184536 | 52 | 293 | 1.0 | 4.0 | 0.00 | 0.04 | 0.04 | 76 | 1016.8 |
| 20260510183516 | 53 | 23 | 1.0 | 2.0 | 0.00 | 0.04 | 0.04 | 79 | 1016.8 |
| 20260510182536 | 53 | 23 | 1.0 | 3.0 | 0.00 | 0.04 | 0.04 | 80 | 1016.9 |
| 20260510181516 | 53 | 338 | 1.0 | 4.0 | 0.00 | 0.04 | 0.04 | 80 | 1016.9 |
| 20260510180556 | 53 | 0 | 1.0 | 3.0 | 0.00 | 0.04 | 0.04 | 80 | 1017.0 |
| 20260510175516 | 53 | 293 | 1.0 | 5.0 | 0.00 | 0.04 | 0.04 | 80 | 1017.0 |
| 20260510174536 | 53 | 315 | 1.0 | 5.0 | 0.00 | 0.04 | 0.04 | 80 | 1017.0 |
| 20260510173516 | 53 | 0 | 1.0 | 5.0 | 0.00 | 0.04 | 0.04 | 79 | 1017.1 |
| 20260510172536 | 54 | 293 | 1.0 | 4.0 | 0.00 | 0.04 | 0.04 | 79 | 1017.2 |
| 20260510171516 | 54 | 0 | 1.0 | 3.0 | 0.00 | 0.04 | 0.04 | 77 | 1017.2 |
| 20260510170516 | 53 | 23 | 1.0 | 4.0 | 0.00 | 0.04 | 0.04 | 78 | 1017.3 |
| 20260510165516 | 53 | 0 | 1.0 | 5.0 | 0.00 | 0.04 | 0.04 | 79 | 1017.4 |
| 20260510164516 | 53 | 0 | 1.0 | 3.0 | 0.00 | 0.04 | 0.04 | 80 | 1017.5 |
| 20260510163516 | 53 | 315 | 1.0 | 4.0 | 0.00 | 0.04 | 0.04 | 82 | 1017.6 |
| 20260510162516 | 53 | 23 | 1.0 | 4.0 | 0.00 | 0.04 | 0.04 | 84 | 1017.8 |
| 20260510161516 | 53 | 0.0 | 2.0 | 0.00 | 0.04 | 0.04 | 86 | 1017.9 | |
| 20260510160516 | 53 | 315 | 1.0 | 4.0 | 0.00 | 0.04 | 0.04 | 85 | 1018.1 |
| 20260510155516 | 52 | 338 | 1.0 | 3.0 | 0.00 | 0.04 | 0.04 | 86 | 1018.2 |
| 20260510154556 | 52 | 0.0 | 2.0 | 0.00 | 0.04 | 0.04 | 86 | 1018.3 | |
| 20260510153516 | 52 | 315 | 1.0 | 3.0 | 0.00 | 0.04 | 0.04 | 87 | 1018.4 |
| 20260510152516 | 52 | 45 | 1.0 | 3.0 | 0.00 | 0.04 | 0.04 | 88 | 1018.4 |
| 20260510151636 | 52 | 0.0 | 2.0 | 0.00 | 0.04 | 0.04 | 89 | 1018.5 | |
| 20260510150516 | 52 | 23 | 1.0 | 2.0 | 0.00 | 0.04 | 0.04 | 88 | 1018.6 |
| 20260510145516 | 52 | 0 | 1.0 | 3.0 | 0.00 | 0.04 | 0.04 | 89 | 1018.7 |
| 20260510144516 | 52 | 315 | 1.0 | 2.0 | 0.01 | 0.04 | 0.04 | 88 | 1018.8 |
| 20260510143516 | 52 | 315 | 1.0 | 4.0 | 0.01 | 0.04 | 0.04 | 88 | 1019.0 |
| 20260510142516 | 52 | 68 | 1.0 | 5.0 | 0.02 | 0.04 | 0.04 | 88 | 1019.1 |
| 20260510141516 | 52 | 315 | 1.0 | 4.0 | 0.02 | 0.04 | 0.04 | 87 | 1019.0 |
| 20260510140516 | 52 | 0 | 1.0 | 4.0 | 0.02 | 0.04 | 0.04 | 88 | 1019.1 |
| 20260510135516 | 52 | 315 | 1.0 | 2.0 | 0.03 | 0.04 | 0.04 | 87 | 1019.2 |
| 20260510134516 | 52 | 293 | 1.0 | 4.0 | 0.03 | 0.03 | 0.03 | 87 | 1019.2 |
| 20260510133516 | 52 | 338 | 2.0 | 6.0 | 0.03 | 0.03 | 0.03 | 86 | 1019.1 |
| 20260510132536 | 53 | 338 | 1.0 | 4.0 | 0.02 | 0.02 | 0.02 | 85 | 1019.0 |
| 20260510131516 | 53 | 0 | 2.0 | 7.0 | 0.02 | 0.02 | 0.02 | 84 | 1019.0 |
| 20260510130516 | 53 | 338 | 1.0 | 4.0 | 0.02 | 0.02 | 0.02 | 84 | 1019.1 |
| 20260510125516 | 54 | 0 | 1.0 | 5.0 | 0.01 | 0.01 | 0.01 | 83 | 1019.4 |
| 20260510124516 | 54 | 315 | 1.0 | 5.0 | 0.00 | 0.00 | 0.00 | 82 | 1019.5 |
| 20260510123536 | 54 | 23 | 1.0 | 4.0 | 0.00 | 0.00 | 0.00 | 81 | 1019.5 |
| 20260510122516 | 54 | 0 | 1.0 | 4.0 | 0.00 | 0.00 | 0.00 | 80 | 1019.6 |
| 20260510121556 | 55 | 315 | 1.0 | 3.0 | 0.00 | 0.00 | 0.00 | 79 | 1019.6 |
| 20260510120516 | 55 | 315 | 2.0 | 5.0 | 0.00 | 0.00 | 0.00 | 78 | 1019.8 |
| 20260510115516 | 55 | 23 | 1.0 | 4.0 | 0.00 | 0.00 | 0.00 | 79 | 1019.8 |
| 20260510114516 | 55 | 0 | 1.0 | 5.0 | 0.00 | 0.00 | 0.00 | 80 | 1019.8 |
| 20260510113516 | 55 | 338 | 2.0 | 5.0 | 0.00 | 0.00 | 0.00 | 80 | 1019.7 |
| 20260510112516 | 55 | 293 | 1.0 | 6.0 | 0.00 | 0.00 | 0.00 | 79 | 1019.8 |
| 20260510111516 | 55 | 338 | 2.0 | 7.0 | 0.00 | 0.00 | 0.00 | 76 | 1019.9 |
| 20260510110516 | 55 | 315 | 1.0 | 5.0 | 0.00 | 0.00 | 0.00 | 75 | 1019.9 |
| 20260510105516 | 55 | 0 | 1.0 | 3.0 | 0.00 | 0.00 | 0.00 | 76 | 1020.0 |
| 20260510104518 | 55 | 338 | 2.0 | 7.0 | 0.00 | 0.00 | 0.00 | 76 | 1020.1 |
| 20260510103616 | 54 | 293 | 1.0 | 5.0 | 0.00 | 0.00 | 0.00 | 77 | 1020.2 |
| 20260510102516 | 54 | 338 | 1.0 | 4.0 | 0.00 | 0.00 | 0.00 | 78 | 1020.2 |
| 20260510101516 | 54 | 0 | 2.0 | 4.0 | 0.00 | 0.00 | 0.00 | 77 | 1020.2 |
| 20260510100516 | 54 | 338 | 1.0 | 5.0 | 0.00 | 0.00 | 0.00 | 78 | 1020.2 |
| 20260510095516 | 54 | 270 | 1.0 | 5.0 | 0.00 | 0.00 | 0.00 | 77 | 1020.2 |
| 20260510094516 | 54 | 338 | 2.0 | 7.0 | 0.00 | 0.00 | 0.00 | 76 | 1020.1 |
| 20260510093516 | 54 | 338 | 2.0 | 4.0 | 0.00 | 0.00 | 0.00 | 75 | 1019.8 |
| 20260510092536 | 54 | 293 | 2.0 | 8.0 | 0.00 | 0.00 | 0.00 | 75 | 1019.9 |
| 20260510091516 | 54 | 293 | 1.0 | 5.0 | 0.00 | 0.00 | 0.00 | 76 | 1020.0 |
| 20260510090516 | 54 | 0 | 1.0 | 4.0 | 0.00 | 0.00 | 0.00 | 77 | 1020.2 |
| 20260510085516 | 54 | 0 | 1.0 | 3.0 | 0.00 | 0.00 | 0.00 | 77 | 1020.2 |
| 20260510084516 | 53 | 0 | 1.0 | 8.0 | 0.00 | 0.00 | 0.00 | 78 | 1020.3 |
| 20260510083516 | 53 | 315 | 1.0 | 4.0 | 0.00 | 0.00 | 0.00 | 78 | 1020.5 |
| 20260510082516 | 53 | 315 | 1.0 | 5.0 | 0.00 | 0.00 | 0.00 | 78 | 1020.6 |
| 20260510081536 | 53 | 338 | 2.0 | 6.0 | 0.00 | 0.00 | 0.00 | 79 | 1020.6 |
| 20260510080516 | 53 | 338 | 1.0 | 4.0 | 0.00 | 0.00 | 0.00 | 80 | 1020.6 |
| 20260510075516 | 53 | 315 | 1.0 | 4.0 | 0.00 | 0.00 | 0.00 | 80 | 1020.5 |
| 20260510074516 | 52 | 0 | 1.0 | 4.0 | 0.00 | 0.00 | 0.00 | 81 | 1020.4 |
| 20260510073536 | 52 | 293 | 1.0 | 2.0 | 0.00 | 0.00 | 0.00 | 81 | 1020.6 |
| 20260510072536 | 52 | 23 | 1.0 | 4.0 | 0.00 | 0.00 | 0.00 | 81 | 1020.6 |
| 20260510071516 | 52 | 0 | 1.0 | 4.0 | 0.00 | 0.00 | 0.00 | 82 | 1020.7 |
| 20260510070516 | 52 | 0 | 1.0 | 3.0 | 0.00 | 0.00 | 0.00 | 83 | 1020.7 |
| 20260510065516 | 51 | 338 | 1.0 | 3.0 | 0.00 | 0.00 | 0.00 | 84 | 1020.7 |
| 20260510064516 | 51 | 0.0 | 2.0 | 0.00 | 0.00 | 0.00 | 84 | 1020.7 | |
| 20260510063516 | 51 | 0 | 1.0 | 3.0 | 0.00 | 0.00 | 0.00 | 85 | 1020.8 |
| 20260510062516 | 51 | 0.0 | 3.0 | 0.00 | 0.00 | 0.00 | 85 | 1020.8 | |
| 20260510061516 | 51 | 0.0 | 2.0 | 0.00 | 0.00 | 0.00 | 85 | 1020.8 | |
| 20260510060516 | 50 | 23 | 1.0 | 3.0 | 0.00 | 0.00 | 0.00 | 85 | 1020.8 |
| 20260510055517 | 50 | 0.0 | 2.0 | 0.00 | 0.00 | 0.00 | 86 | 1020.7 | |
| 20260510054516 | 50 | 23 | 1.0 | 5.0 | 0.00 | 0.00 | 0.00 | 86 | 1020.6 |
| 20260510053516 | 50 | 0.0 | 2.0 | 0.00 | 0.00 | 0.00 | 86 | 1020.5 | |
| 20260510052516 | 50 | 0.0 | 2.0 | 0.00 | 0.00 | 0.00 | 86 | 1020.6 | |
| 20260510051536 | 50 | 0.0 | 2.0 | 0.00 | 0.00 | 0.00 | 86 | 1020.5 | |
| 20260510050516 | 50 | 0.0 | 2.0 | 0.00 | 0.00 | 0.00 | 86 | 1020.5 | |
| 20260510045516 | 50 | 0.0 | 2.0 | 0.00 | 0.00 | 0.00 | 86 | 1020.5 | |
| 20260510044516 | 50 | 0.0 | 2.0 | 0.00 | 0.00 | 0.00 | 86 | 1020.5 | |
| 20260510043516 | 50 | 23 | 1.0 | 4.0 | 0.00 | 0.00 | 0.00 | 86 | 1020.5 |
| 20260510042516 | 50 | 315 | 1.0 | 2.0 | 0.00 | 0.00 | 0.00 | 85 | 1020.6 |
| 20260510041516 | 50 | 315 | 1.0 | 3.0 | 0.00 | 0.00 | 0.00 | 85 | 1020.7 |
| 20260510040516 | 50 | 338 | 1.0 | 4.0 | 0.00 | 0.00 | 0.00 | 84 | 1020.7 |
| 20260510035537 | 50 | 0 | 1.0 | 3.0 | 0.00 | 0.00 | 0.00 | 84 | 1020.8 |
| 20260510034516 | 50 | 23 | 1.0 | 5.0 | 0.00 | 0.00 | 0.00 | 84 | 1020.8 |
| 20260510033516 | 50 | 45 | 1.0 | 5.0 | 0.00 | 0.00 | 0.00 | 83 | 1020.7 |
| 20260510032516 | 51 | 0 | 2.0 | 5.0 | 0.00 | 0.00 | 0.00 | 83 | 1020.8 |
| 20260510031516 | 51 | 0 | 1.0 | 3.0 | 0.00 | 0.00 | 0.00 | 83 | 1021.0 |
| 20260510030516 | 51 | 23 | 1.0 | 3.0 | 0.00 | 0.00 | 0.00 | 82 | 1021.1 |
| 20260510025516 | 51 | 23 | 1.0 | 4.0 | 0.00 | 0.00 | 0.00 | 81 | 1021.0 |
| 20260510024536 | 51 | 338 | 1.0 | 3.0 | 0.00 | 0.00 | 0.00 | 81 | 1021.0 |
| 20260510023516 | 51 | 0.0 | 1.0 | 0.00 | 0.00 | 0.00 | 80 | 1020.9 | |
| 20260510022516 | 51 | 0.0 | 1.0 | 0.00 | 0.00 | 0.00 | 80 | 1020.8 | |
| 20260510021516 | 52 | 0.0 | 3.0 | 0.00 | 0.00 | 0.00 | 79 | 1021.0 | |
| 20260510020516 | 52 | 0.0 | 1.0 | 0.00 | 0.00 | 0.00 | 79 | 1021.0 | |
| 20260510015517 | 52 | 45 | 1.0 | 4.0 | 0.00 | 0.00 | 0.00 | 79 | 1020.8 |
| 20260510014516 | 52 | 0.0 | 2.0 | 0.00 | 0.00 | 0.00 | 78 | 1020.8 | |
| 20260510013517 | 52 | 0.0 | 1.0 | 0.00 | 0.00 | 0.00 | 77 | 1020.8 | |
| 20260510012517 | 53 | 0 | 1.0 | 3.0 | 0.00 | 0.00 | 0.00 | 77 | 1020.7 |
| 20260510011517 | 53 | 315 | 1.0 | 2.0 | 0.00 | 0.00 | 0.00 | 76 | 1020.8 |
| 20260510010516 | 53 | 0.0 | 2.0 | 0.00 | 0.00 | 0.00 | 76 | 1020.8 | |
| 20260510005536 | 53 | 315 | 1.0 | 2.0 | 0.00 | 0.00 | 0.00 | 75 | 1020.8 |
| 20260510004517 | 53 | 0 | 1.0 | 2.0 | 0.00 | 0.00 | 0.00 | 74 | 1020.7 |
| 20260510003537 | 53 | 293 | 1.0 | 2.0 | 0.00 | 0.00 | 0.00 | 73 | 1020.7 |
| 20260510002516 | 53 | 0.0 | 3.0 | 0.00 | 0.00 | 0.00 | 73 | 1020.7 | |
| 20260510001556 | 53 | 0.0 | 2.0 | 0.00 | 0.00 | 0.00 | 71 | 1020.7 | |
| 20260510000516 | 53 | 0 | 1.0 | 2.0 | 0.00 | 0.00 | 0.00 | 69 | 1020.7 |
| 20260509235517 | 53 | 338 | 1.0 | 2.0 | 0.00 | 0.00 | 0.00 | 68 | 1020.7 |
| 20260509234517 | 53 | 0.0 | 2.0 | 0.00 | 0.00 | 0.00 | 68 | 1020.8 | |
| 20260509233517 | 53 | 0.0 | 2.0 | 0.00 | 0.00 | 0.00 | 68 | 1020.9 | |
| 20260509232516 | 53 | 0.0 | 1.0 | 0.00 | 0.00 | 0.00 | 68 | 1020.9 | |
| 20260509231516 | 53 | 0.0 | 1.0 | 0.00 | 0.00 | 0.00 | 67 | 1020.9 |